RESURS DK-1 - Orbit

View from above orbital plane
View from above orbital plane
View from above satellite
View from above satellite

Ground track
Ground track

The orbit data is extracted from the following two-line orbital elements,

1 29228U 06021A   13139.82604388  .00000908  00000-0  80715-4 0  7628
2 29228 069.9364 281.9492 0003055 147.5229 011.1056 14.99912934384572
Epoch (UTC): 19 May 2013 19:49:30
Eccentricity: 0.0003055
inclination: 69.9364°
perigee height: 565 km
apogee height: 569 km
right ascension of ascending node: 281.9492°
argument of perigee: 147.5229°
revolutions per day: 14.99912934
mean anomaly at epoch: 11.1056°
orbit number at epoch: 38457

The dashed part of the orbit path shows where the satellite is in the earth's shadow,  

Developed and maintained by Chris Peat, Heavens-Above GmbH. Please read the updated FAQ before sending e-mail. Imprint. DLR